Dewpoint
60 59 59 59 59 59 59 59 59 59 59 59 59 59 59 59 59 58 58 58 58 58 58 58 58 59 59 59 59 59 59 59 59 59 59 59 59 59 59 59 58 58 58 58 57 56 55 52 50 48 47 46 46 46 48 50 52 53 53 55 57 58 58 59 59 59 59 60 60 60 61 61 60 60 59 59 59 59 59 59 59 59 59 59 59 59 59 59 59 59 59 59 60 60 61 62 62 61 60 60 60 60 61
59 59 59 59 59 59 59 59 59 59 59 59 59 59 59 59 58 58 58 58 58 58 58 58 58 58 58 58 58 58 59 59 59 59 59 59 59 59 59 58 58 58 58 57 56 55 54 51 50 48 46 46 46 46 48 50 52 54 55 56 57 59 59 59 59 59 59 59 59 60 60 60 59 59 59 59 59 59 59 59 59 59 59 59 59 59 60 60 59 59 59 59 59 59 59 60 60 60 59 59 59 60 61
59 59 59 59 59 59 60 60 61 61 60 59 59 59 59 59 58 58 58 58 58 58 58 58 59 59 59 58 58 58 58 58 58 58 59 59 59 59 59 58 58 57 57 56 55 54 53 51 49 47 46 45 45 46 48 50 52 54 55 56 57 59 60 59 59 59 59 59 59 59 60 59 59 59 59 59 59 59 59 59 59 59 59 59 59 59 60 60 61 60 60 60 59 59 59 59 59 59 59 59 59 59 60
59 59 59 59 59 59 61 62 63 63 63 61 60 59 59 59 58 58 58 58 58 59 59 59 59 59 59 59 59 59 59 58 58 58 58 59 59 59 59 59 58 57 56 55 54 53 50 50 48 46 46 44 44 45 47 50 52 53 55 55 57 59 61 60 59 59 58 58 58 59 59 59 59 59 59 59 59 59 59 59 59 59 59 59 59 59 59 61 62 62 62 62 61 60 60 59 59 59 60 60 59 59 61
60 59 59 59 59 60 62 63 64 63 62 61 61 60 60 59 59 58 58 58 58 58 59 59 59 59 59 59 59 59 59 59 58 58 58 58 59 59 59 59 58 57 56 55 54 53 51 49 47 46 45 43 43 44 46 50 52 53 54 55 57 59 60 59 59 58 58 58 58 58 58 59 58 58 58 58 58 58 58 58 58 58 58 58 58 58 59 60 61 62 62 63 63 62 62 61 61 61 62 62 62 62 62
60 59 59 60 60 61 62 62 62 62 61 61 61 61 60 59 59 58 58 58 58 58 58 59 59 59 59 59 59 59 59 59 59 58 58 58 58 59 59 59 58 57 56 55 54 53 51 48 46 46 44 44 44 45 46 50 52 53 54 55 57 59 60 59 58 58 58 57 57 57 57 58 58 58 58 58 58 58 57 57 57 57 58 58 58 58 58 59 59 60 61 62 63 63 63 63 62 63 63 63 64 63 63
60 60 61 62 63 63 62 61 60 60 60 60 60 60 60 59 59 58 58 57 57 57 58 58 59 59 59 59 59 59 59 59 59 59 58 58 58 58 59 59 58 58 56 55 55 54 51 48 46 46 44 44 45 46 47 50 52 53 53 55 57 59 59 59 58 58 57 56 56 56 56 56 57 57 57 57 57 57 57 57 57 57 57 57 57 57 58 58 58 58 59 60 61 62 62 62 62 62 63 63 63 63 63
60 61 62 63 64 64 62 61 60 60 60 59 59 59 59 59 58 58 58 58 57 58 58 59 59 59 59 59 59 59 58 59 59 59 58 58 58 58 59 59 59 58 57 56 55 54 52 50 47 45 44 45 46 46 48 50 51 53 54 55 57 58 59 58 57 57 56 56 56 55 55 56 56 57 57 57 57 57 56 56 56 56 57 57 57 57 57 57 57 57 58 58 59 59 60 61 61 62 62 62 62 62 62
60 60 61 63 64 63 62 61 61 60 60 59 58 58 58 58 58 58 58 58 58 58 58 59 59 59 59 59 58 58 58 58 58 59 59 58 58 59 59 59 58 58 57 56 55 54 52 50 47 45 44 45 46 47 50 49 51 53 54 56 57 57 58 57 57 56 56 56 56 55 55 56 56 57 57 56 56 56 56 56 56 56 56 57 57 57 57 57 57 57 57 57 57 58 59 59 60 60 61 61 61 61 61
60 60 61 62 63 62 62 61 61 60 59 59 58 58 58 58 58 58 58 58 58 58 59 59 59 59 58 58 58 58 58 58 58 58 58 59 59 59 59 59 58 57 56 55 55 53 51 49 47 45 44 44 46 48 51 51 52 54 55 56 57 57 57 56 56 55 55 56 56 56 56 56 56 56 56 56 56 56 56 56 56 56 56 57 57 57 57 57 57 57 57 57 57 57 58 58 59 59 59 59 60 60 60
60 60 60 61 61 61 61 61 61 60 59 58 58 58 58 58 58 58 59 59 59 60 60 60 59 59 58 58 58 59 59 59 58 58 58 59 59 59 59 58 57 56 55 54 53 51 49 48 46 44 43 43 46 49 52 53 54 54 55 56 56 56 56 55 55 55 56 56 56 57 56 56 56 56 56 56 56 56 56 56 56 57 57 57 57 57 57 57 57 57 57 57 57 57 57 57 58 58 58 58 59 59 59
60 60 60 60 60 60 60 60 60 60 59 58 58 58 58 59 59 59 60 61 62 62 61 60 59 59 58 58 58 59 59 59 59 59 59 59 59 59 58 57 56 55 54 52 51 49 47 46 44 43 42 43 46 49 52 53 54 55 55 55 55 55 55 55 55 55 56 57 57 57 57 57 56 56 56 56 56 56 57 57 57 57 57 57 57 57 57 56 56 56 56 56 56 57 57 57 57 57 57 57 58 58 58
60 60 60 59 60 60 60 60 59 59 59 59 59 59 60 61 61 62 63 64 63 63 61 59 59 58 58 58 58 59 59 60 59 59 59 59 59 58 57 55 55 53 52 50 49 47 45 44 42 41 41 43 46 50 52 53 54 55 54 55 55 55 55 55 55 56 57 57 57 57 57 57 57 57 57 57 57 57 57 57 57 57 57 57 57 56 56 56 56 56 56 56 56 56 57 56 56 57 57 57 57 57 58
61 60 59 60 60 59 59 59 59 59 59 59 60 61 62 63 63 64 64 64 63 61 59 58 58 58 57 58 58 58 59 59 59 59 59 59 58 56 55 54 52 51 50 48 47 46 44 42 41 41 41 43 46 50 51 52 54 55 53 54 54 54 55 55 56 57 57 57 57 57 57 57 57 57 57 57 57 57 57 57 57 57 57 56 56 56 56 56 56 56 56 57 57 57 57 57 56 56 57 57 57 57 58
60 59 60 61 60 60 60 59 59 59 59 60 61 62 63 63 63 62 62 62 61 59 58 57 57 57 57 57 57 57 57 58 58 58 57 57 55 55 53 52 50 50 49 46 45 43 42 41 41 41 41 43 46 49 50 52 53 53 52 53 53 54 55 55 56 57 57 57 57 57 57 57 57 57 57 57 57 57 56 56 56 56 56 56 56 56 56 56 56 56 56 56 57 57 57 57 57 57 57 57 57 58 58
59 60 62 62 61 61 60 60 60 60 60 60 61 61 62 61 61 60 60 59 59 58 56 56 55 55 55 55 55 55 55 55 55 55 55 55 54 53 51 50 49 48 46 45 43 41 40 39 40 40 41 44 46 49 50 52 52 52 51 52 53 54 55 56 57 57 57 57 56 56 56 56 56 56 57 57 57 56 56 56 56 56 56 56 55 56 56 56 56 56 56 56 56 57 57 57 57 57 57 57 57 58 58
60 61 63 63 63 62 62 61 61 61 61 61 61 61 61 60 60 59 59 59 58 57 55 55 54 53 53 52 51 51 50 51 52 52 53 52 52 51 50 49 47 46 44 43 41 40 38 38 38 40 41 44 47 49 50 51 51 50 51 52 54 55 56 57 57 57 56 56 56 55 55 55 55 55 56 56 56 56 56 56 56 56 55 55 55 55 55 55 55 55 55 56 56 56 56 56 56 57 57 57 57 57 58
60 61 63 63 63 63 63 62 62 61 61 61 61 60 60 60 59 59 58 58 57 56 55 53 52 51 50 49 47 45 46 46 46 48 49 49 49 49 48 47 46 45 42 41 39 38 38 37 38 39 42 45 47 49 50 50 50 50 51 53 55 56 57 57 57 56 56 55 55 55 55 55 55 55 55 55 55 55 55 55 55 55 55 55 55 55 55 55 55 55 55 55 55 55 56 56 56 56 56 56 57 57 57
61 63 63 64 64 63 63 62 62 62 61 60 60 59 60 59 59 58 58 57 56 55 53 52 50 50 48 46 43 41 41 41 41 42 43 44 45 46 45 45 44 43 40 39 38 38 37 37 37 40 43 46 47 49 50 50 50 52 53 55 55 56 57 56 56 56 55 55 55 55 55 55 55 55 55 55 55 55 55 55 55 55 55 55 54 54 54 54 54 54 54 54 55 55 55 55 55 55 55 56 56 56 56
61 62 63 63 64 63 63 62 62 61 60 59 59 59 59 59 58 57 57 56 55 53 51 50 49 47 46 44 41 38 38 37 37 38 39 40 41 42 43 41 41 40 38 38 38 38 37 37 38 41 45 46 47 47 49 50 51 53 55 55 56 56 56 56 55 55 55 55 55 55 55 55 55 55 55 55 55 55 55 55 55 55 55 54 54 54 54 53 53 53 53 53 53 54 54 55 55 55 55 55 55 55 56
59 59 60 61 62 62 61 61 60 60 59 59 58 58 58 58 57 56 55 54 52 50 49 48 46 43 42 40 38 37 37 37 37 37 37 38 40 41 41 40 39 38 38 39 39 39 39 39 41 43 46 46 46 46 46 50 52 54 55 56 56 56 56 55 55 55 55 55 55 55 55 55 55 55 55 55 55 55 55 55 55 55 55 54 54 54 53 53 53 53 52 52 53 53 53 54 54 55 55 55 55 55 55
57 58 57 58 59 59 59 58 58 58 58 58 58 57 54 55 55 54 52 50 48 47 46 44 42 40 38 37 37 36 37 36 36 36 36 37 37 39 40 40 39 39 40 40 40 40 40 41 43 45 46 46 46 46 46 51 53 54 55 55 55 55 55 55 55 55 55 55 55 55 55 54 54 54 54 54 54 55 55 55 55 55 54 54 54 53 53 53 53 53 53 53 52 52 53 53 53 54 54 54 54 55 55
56 56 56 56 56 57 57 57 57 57 57 58 57 55 52 52 52 50 49 46 44 43 43 41 39 38 37 37 36 36 37 36 35 34 34 35 37 38 40 40 40 40 40 40 39 39 40 42 45 46 46 46 46 47 47 51 53 53 54 54 55 55 55 55 55 55 55 55 55 55 54 54 53 53 53 53 53 53 54 54 54 54 54 54 54 53 53 53 53 53 53 53 53 53 53 53 53 53 53 54 54 54 54
56 55 55 56 56 57 57 57 57 56 57 57 56 54 50 50 50 48 46 44 42 41 40 38 38 37 37 36 36 37 37 36 34 33 32 33 36 38 39 39 39 39 39 39 39 40 41 44 46 46 45 45 46 47 47 50 51 52 52 53 54 54 55 55 55 55 55 55 55 55 54 53 53 53 52 52 52 52 53 53 53 53 53 53 53 54 54 54 54 54 54 53 53 53 53 53 53 53 53 53 53 53 53
56 55 55 56 57 57 58 57 57 57 57 57 56 53 49 49 48 46 43 42 41 41 40 38 38 38 38 37 37 38 37 36 35 34 35 35 36 37 38 37 38 38 39 39 39 41 42 45 46 45 44 45 46 47 47 50 50 51 51 52 52 53 54 54 55 55 55 55 55 54 54 53 53 52 52 52 52 52 52 52 53 53 53 53 53 54 54 54 54 54 54 54 53 53 54 53 53 53 53 53 53 53 53
56 56 56 57 57 58 58 57 57 57 57 58 56 53 48 48 46 45 42 41 41 40 39 39 38 38 38 37 37 37 37 37 36 36 36 36 36 36 37 37 37 37 37 39 40 42 43 45 45 44 43 45 46 46 47 50 51 50 50 51 52 52 53 54 54 54 55 55 54 54 53 53 53 52 52 52 52 52 52 52 53 53 53 53 53 54 54 54 54 54 54 53 53 53 53 53 53 53 53 53 53 53 53
56 56 56 57 57 57 57 57 57 58 58 58 57 54 48 47 45 43 41 40 40 40 40 39 38 38 38 38 37 37 37 37 37 37 37 37 37 37 36 36 36 37 37 38 41 42 44 45 44 43 43 44 45 46 47 50 51 51 50 50 51 52 53 53 53 53 54 54 54 53 53 52 52 52 52 51 51 52 52 53 53 53 53 53 53 53 54 54 54 54 53 53 53 53 53 53 53 53 53 53 53 53 53
56 57 57 56 56 56 56 56 57 57 57 57 56 54 49 46 44 42 40 40 40 40 39 39 39 39 40 39 38 37 37 37 37 37 37 38 38 37 37 36 36 35 36 38 39 41 43 43 42 41 41 42 44 46 48 51 53 53 52 51 51 52 52 53 52 52 53 53 53 53 52 52 52 51 51 51 51 52 52 53 53 53 53 53 53 53 53 53 53 53 53 53 53 53 53 53 53 53 53 53 53 53 53
56 56 56 56 56 55 56 56 56 56 57 56 56 54 50 46 44 42 40 40 40 40 39 40 41 41 41 41 39 37 37 37 37 37 38 38 38 38 37 36 35 35 36 37 38 39 41 41 41 40 39 40 41 44 47 51 54 54 54 53 52 52 52 53 52 52 52 52 52 52 51 51 51 51 51 51 51 51 52 53 53 53 53 53 53 53 53 53 53 53 53 53 53 53 53 53 53 52 52 52 52 52 52
55 55 55 55 55 55 55 56 56 56 57 56 55 54 50 46 44 42 41 40 40 40 39 40 41 41 42 41 38 37 36 36 37 37 38 38 38 37 37 36 35 35 35 36 38 39 40 40 40 39 38 38 38 40 43 48 52 54 55 54 53 53 53 53 53 52 51 51 51 51 50 50 50 50 51 51 51 51 51 52 53 53 53 53 52 52 52 52 52 52 52 52 52 52 53 53 53 52 52 52 52 52 52
54 55 55 55 55 55 55 55 55 55 56 56 55 54 50 46 44 41 41 40 40 39 39 39 40 41 42 41 39 38 38 37 37 37 37 38 37 37 37 36 35 34 35 37 39 40 41 40 40 39 39 38 38 38 40 43 48 52 55 55 54 54 53 53 53 53 52 51 50 50 50 50 50 50 50 50 50 50 51 51 52 52 53 52 52 52 52 52 52 52 52 52 52 52 52 52 52 52 52 52 52 52 51
53 54 54 54 54 54 55 55 55 55 55 55 55 54 50 47 44 41 41 41 40 39 38 39 39 39 40 39 38 38 39 37 36 37 38 38 37 37 37 36 35 35 36 37 39 40 41 41 40 39 39 38 38 39 40 42 45 48 51 53 53 53 53 53 53 53 52 51 50 50 49 50 50 50 50 50 50 50 50 51 51 52 52 52 52 52 52 52 52 52 52 52 52 52 52 52 52 52 52 52 51 51 51
53 53 53 53 53 54 55 54 54 54 55 55 55 54 50 47 44 41 41 41 41 41 41 40 39 39 39 38 38 38 38 37 36 35 37 37 37 37 37 36 35 36 37 37 38 39 41 41 40 39 39 38 38 39 39 41 43 46 48 51 52 52 52 52 52 52 52 51 50 49 49 49 49 49 49 49 49 49 49 50 50 51 51 51 51 52 52 52 53 52 52 52 52 51 51 51 52 52 51 51 51 51 51
53 53 53 53 53 54 54 54 54 54 55 54 54 54 51 47 44 41 40 40 41 41 41 41 40 40 39 38 39 39 37 37 35 34 34 36 37 37 37 36 36 36 37 36 37 38 40 40 39 38 38 38 38 38 39 41 43 46 48 48 49 50 51 51 52 52 51 50 50 49 48 48 48 48 48 48 48 48 48 49 50 50 51 51 51 51 52 52 53 52 52 52 51 51 51 51 51 51 51 51 51 51 51
53 53 52 53 53 54 54 53 53 54 54 54 54 53 51 47 43 41 40 40 39 39 39 39 39 39 39 39 39 38 37 36 35 33 32 34 36 37 37 37 37 37 36 36 36 37 38 38 38 38 38 37 38 38 39 41 44 46 47 47 47 48 50 50 50 50 50 50 49 48 48 48 48 48 47 47 47 47 48 48 48 49 50 50 50 50 51 52 52 52 52 52 51 51 51 51 51 51 51 51 51 51 51
54 53 53 53 53 53 54 54 54 54 53 53 53 52 50 46 43 41 40 39 39 38 38 39 39 39 40 39 39 38 37 35 34 32 32 33 35 37 37 36 36 37 36 36 37 37 37 37 37 37 37 37 38 39 40 42 44 46 46 46 46 45 46 47 48 48 49 49 48 47 47 47 47 47 47 46 46 46 46 47 47 48 49 50 50 50 51 52 52 52 52 51 51 51 51 51 51 51 50 51 51 51 51
54 53 53 53 53 53 53 54 54 54 52 52 52 51 49 46 43 41 40 39 39 38 39 40 40 40 41 40 39 38 37 35 32 31 30 32 34 35 36 36 37 37 36 37 38 38 37 37 37 37 37 38 39 39 40 42 43 44 46 46 45 44 44 45 45 45 47 47 47 47 46 46 46 46 46 46 46 46 46 46 46 47 48 48 49 50 50 51 52 52 51 51 51 51 51 51 51 51 50 50 50 51 51
54 54 54 53 53 53 53 54 54 54 53 52 51 50 48 46 43 41 40 40 40 40 41 41 41 41 41 40 39 38 38 35 32 30 29 31 32 33 35 36 37 37 36 37 38 38 37 37 37 38 38 39 39 39 40 41 41 42 44 43 43 43 43 42 42 42 44 45 46 46 46 45 45 45 46 45 45 45 45 45 45 46 47 47 48 49 50 50 51 51 51 50 50 50 51 51 51 51 50 50 50 50 50
54 54 54 54 54 53 53 54 54 53 53 52 51 50 48 46 43 42 41 41 41 41 41 41 41 41 41 40 39 38 37 35 33 31 30 30 31 32 34 35 36 36 36 37 38 37 36 37 37 37 38 38 38 38 39 39 40 40 40 41 41 41 41 41 40 40 40 41 43 45 45 45 45 45 45 45 44 44 44 44 44 45 46 47 47 48 49 50 50 51 50 50 50 50 50 50 50 50 50 50 50 50 50
55 54 54 54 54 54 55 55 54 53 52 51 50 49 47 46 43 42 41 41 41 41 41 41 40 39 39 39 38 37 36 35 33 31 31 31 31 32 34 35 35 36 37 37 37 37 37 37 37 37 37 37 38 38 38 38 38 38 38 38 38 38 39 38 37 37 37 38 41 42 43 44 44 44 44 44 44 44 43 44 44 44 46 46 47 47 48 49 50 50 50 50 50 50 50 50 50 50 50 50 50 50 50
55 55 54 54 54 55 55 54 54 53 52 51 50 49 47 46 44 42 41 41 41 42 42 42 40 37 37 38 37 35 34 34 33 33 32 32 32 33 34 34 35 35 36 37 37 37 37 37 36 36 37 37 37 37 37 37 37 37 37 37 37 37 37 37 35 35 34 36 38 40 40 41 42 43 43 44 44 44 43 44 44 44 45 46 46 47 47 48 49 50 50 49 49 49 50 50 50 50 50 50 50 50 50
55 55 55 54 55 55 55 54 53 52 52 51 50 49 47 46 45 43 41 41 41 42 43 42 41 39 37 37 37 35 33 33 33 34 33 33 33 34 34 34 34 34 36 36 36 36 37 37 37 37 37 37 37 36 36 37 37 37 36 35 35 36 36 35 35 35 35 35 36 38 40 40 40 41 41 42 43 44 44 44 44 44 45 46 46 46 46 48 48 49 49 49 49 49 49 50 50 50 50 50 50 50 50
56 55 55 55 55 55 55 54 53 52 52 51 50 49 47 46 45 44 43 43 43 43 43 42 42 41 39 37 36 34 32 32 32 33 33 33 33 34 34 34 34 34 34 35 35 36 36 37 36 36 35 35 35 35 35 35 35 35 35 34 34 35 37 37 37 38 38 37 37 37 40 40 39 39 40 41 41 42 43 44 44 45 45 46 46 46 46 47 48 48 48 48 49 49 49 50 50 50 50 50 50 50 50
56 55 55 55 55 55 55 54 54 53 52 51 50 49 48 46 44 44 45 45 44 43 42 42 42 42 41 37 35 33 30 31 31 32 33 33 32 32 33 33 33 33 33 33 34 35 35 36 35 35 33 32 32 32 33 33 34 34 34 33 34 36 38 39 39 39 40 40 38 37 39 40 40 38 37 38 39 41 42 43 44 45 46 46 46 46 46 46 47 47 48 48 48 49 49 49 50 50 50 50 50 50 50
57 56 55 55 55 55 55 54 54 53 52 51 50 49 48 46 45 44 45 45 45 43 41 42 43 43 41 38 35 32 30 30 30 31 33 32 32 32 33 32 32 33 33 32 33 34 34 34 34 33 32 31 31 32 32 32 33 33 33 33 34 36 39 39 39 39 38 38 37 37 39 39 39 39 38 37 38 39 41 43 44 45 46 46 46 46 46 46 47 47 47 47 48 48 49 49 49 49 50 50 49 49 49
57 56 55 55 55 55 55 54 54 53 52 52 50 50 48 46 45 45 44 44 44 43 42 41 42 42 42 40 36 32 31 31 31 31 32 32 32 32 32 32 32 32 32 32 32 33 33 33 32 32 31 30 31 31 31 32 32 32 31 32 33 36 38 38 38 38 37 37 37 37 39 37 37 37 36 35 35 37 40 42 44 45 46 47 47 46 46 46 46 46 46 47 47 47 48 48 48 49 49 49 49 49 49
57 56 55 55 55 55 54 54 54 53 53 52 51 50 48 47 46 45 45 44 44 43 42 42 41 41 40 37 35 33 32 32 31 32 32 32 32 32 32 31 31 31 31 31 31 32 32 32 31 30 31 30 30 30 30 31 31 30 29 30 33 36 37 38 37 37 37 35 36 37 38 37 35 34 31 31 32 35 38 41 43 45 46 47 47 46 46 46 46 46 46 46 46 46 46 47 47 48 48 48 48 48 48
57 56 55 55 55 55 54 54 54 53 53 52 51 50 49 48 47 47 46 45 44 42 42 42 41 39 38 36 34 32 32 32 31 30 31 31 32 32 32 31 31 30 31 31 32 31 31 31 30 30 30 29 29 29 29 29 29 28 28 29 31 33 35 35 35 35 34 33 34 36 38 36 34 32 30 31 32 33 36 38 40 42 44 46 46 46 45 45 45 45 45 45 45 45 45 46 46 46 47 48 48 48 48
57 56 55 55 55 54 54 54 54 53 53 52 51 51 51 50 49 48 47 46 45 43 42 41 40 39 37 35 33 32 31 32 32 31 30 29 28 29 30 30 29 29 29 31 32 32 30 31 30 29 29 28 28 28 28 28 28 27 28 28 28 28 30 31 32 33 32 32 34 36 37 36 34 32 31 32 32 33 34 35 37 39 41 43 44 44 43 43 43 43 43 43 44 44 44 45 45 46 46 47 47 47 48
57 56 55 55 55 54 54 53 53 53 53 52 52 52 52 51 50 49 47 46 45 44 43 41 40 39 37 34 32 32 31 32 32 32 31 29 27 27 28 28 28 28 28 31 32 32 31 30 30 29 29 28 27 27 28 27 27 27 27 27 26 26 27 28 30 32 32 34 35 36 36 36 35 33 32 32 33 33 33 34 35 37 39 40 41 41 41 41 41 41 41 42 42 43 44 44 45 46 46 46 47 47 47
57 56 55 55 55 54 54 53 53 53 53 53 53 53 53 52 50 49 47 46 45 44 42 40 39 39 37 34 33 32 31 33 34 32 29 29 30 30 29 29 29 29 30 31 32 32 31 30 31 31 29 28 28 27 27 27 27 27 27 27 26 26 26 26 28 31 34 35 35 35 34 35 34 33 32 33 33 33 34 33 34 34 35 35 37 37 38 39 40 40 41 41 41 42 43 44 45 46 46 46 47 47 47
57 56 55 55 55 54 54 54 53 53 53 52 52 52 52 51 50 49 48 46 45 44 42 39 37 37 38 37 35 34 34 33 34 33 29 30 32 36 36 32 29 27 28 29 32 34 32 31 30 30 30 29 28 27 27 28 28 28 28 27 27 26 25 25 26 28 32 33 34 35 35 36 35 33 33 32 32 33 33 32 32 32 32 32 33 34 36 37 38 39 40 41 41 42 42 44 45 46 46 46 46 46 47
56 56 55 55 55 55 54 54 53 53 53 52 52 51 50 50 50 49 47 46 46 45 43 40 37 35 35 36 36 35 35 35 34 34 34 32 32 33 35 33 30 28 28 26 29 32 33 31 29 29 28 28 27 26 26 27 27 28 29 28 28 27 25 25 26 27 28 29 32 34 35 35 34 33 32 31 31 31 31 31 31 31 31 32 32 33 33 34 37 38 39 41 41 42 42 43 44 45 46 46 46 46 46
56 55 55 55 55 55 54 54 53 53 53 52 52 51 50 50 49 49 47 46 46 45 43 41 39 36 33 33 34 34 34 34 34 34 35 35 33 31 30 30 31 31 30 28 28 28 31 30 28 27 28 28 27 27 27 27 28 28 29 28 28 26 25 26 26 26 26 28 30 32 32 34 34 34 33 31 30 30 30 30 31 31 31 32 32 32 33 33 34 36 37 39 41 41 42 43 43 44 45 45 46 46 46
56 55 55 55 55 55 54 54 53 53 53 53 52 51 50 50 50 49 48 47 46 45 43 41 39 36 32 32 32 33 33 33 33 33 32 34 35 35 33 31 29 28 29 28 28 29 29 29 28 28 28 28 27 26 26 27 27 28 29 28 27 26 25 25 25 25 24 26 28 29 30 31 31 32 32 32 31 30 30 30 30 30 31 30 31 31 32 32 33 33 35 37 39 41 41 43 43 43 44 44 45 45 46
56 55 55 55 55 55 55 54 53 53 53 53 52 51 51 50 50 50 49 48 47 46 44 41 40 37 35 33 32 33 34 34 34 34 32 32 34 37 39 36 32 30 29 28 28 30 34 30 28 28 28 28 27 26 26 27 27 28 29 28 26 26 25 25 24 23 24 26 28 29 29 29 30 31 32 31 31 30 30 30 30 31 31 31 30 31 31 31 31 31 33 35 37 39 41 42 43 43 43 44 44 45 45
56 55 55 55 55 55 55 54 53 53 53 52 52 52 51 51 51 50 50 49 48 46 45 43 41 39 37 35 34 34 34 34 34 35 34 33 34 36 38 39 38 38 36 35 34 33 33 32 31 30 30 31 29 28 28 28 28 28 28 27 26 25 26 24 24 24 25 26 27 28 29 29 29 29 30 30 30 31 31 31 31 31 31 31 30 30 30 30 30 31 32 34 36 38 41 41 42 43 43 44 44 45 45
55 55 55 55 55 55 55 54 53 53 52 52 52 52 52 51 51 50 50 49 48 47 46 44 42 40 38 38 37 36 34 33 34 34 35 34 35 35 36 36 36 37 40 41 39 37 32 30 32 32 31 30 30 31 32 30 28 28 28 26 25 24 25 24 24 25 25 25 26 27 28 28 28 29 30 30 31 32 32 32 32 31 31 31 31 30 30 30 30 32 33 36 37 38 40 41 42 42 43 43 44 44 45
56 55 55 55 55 55 55 54 54 53 52 52 52 51 51 51 51 51 50 49 48 48 46 45 43 41 39 39 38 37 34 33 34 34 34 33 34 34 35 34 34 34 34 36 37 37 35 32 33 34 32 30 30 31 32 30 29 28 27 27 26 25 25 25 25 26 26 25 25 26 26 26 28 29 28 29 29 30 31 32 31 31 30 30 31 31 30 31 32 33 36 37 38 39 40 41 41 42 42 43 44 44 45
56 55 55 55 55 55 55 54 54 53 52 52 51 51 51 51 51 51 50 50 49 48 47 46 44 42 40 40 39 37 34 33 35 36 34 32 32 33 33 32 31 31 31 32 33 33 35 36 36 35 33 34 33 32 31 31 31 30 28 27 26 26 26 27 27 27 26 25 25 25 24 24 26 27 27 28 28 29 30 30 30 30 30 30 30 30 30 30 31 32 34 36 38 39 40 41 41 42 42 43 43 44 44
56 55 55 55 55 55 55 54 53 53 52 52 51 51 51 51 51 51 50 50 49 48 47 46 45 44 41 40 39 38 36 35 36 37 35 32 32 33 32 30 29 29 30 31 31 31 30 32 35 36 36 37 35 33 31 30 31 31 30 29 28 27 27 28 28 27 25 24 24 24 24 24 24 25 26 28 28 29 30 30 31 31 31 30 30 30 30 30 30 31 32 34 37 39 40 40 41 41 42 42 43 44 44